Погода в Чесан

Россия / Республика Бурятия     51°57′53″N   110°30′38″E
темп.,
°C
ветер,
м/с
пор.,
м/с
влажн.,
%
обл.,
%
осадки,
мм/ч
давл.,
гПа
погр.,
м
18 мая, вт
вт1823:00+4з2273100 0.0 100726
02:00+5з1180100 0.2 1007102
05:00+3з2289100 0.2 100856
08:00+7зсз584342 0.3 10081359
11:00+10з61034100 0.0 10072599
14:00+11з71032100 0.0 10062765
17:00+12з71031100 0.0 10042550
20:00+8з244776 0.0 1004123
19 мая, ср
ср1923:00+5юз116191 0.0 100312
02:00+3юв2269100 0.0 100024
05:00+5юв1265100 0.0 99665
08:00+6юз2873100 0.4 994360
11:00+6ссз5985100 1.1 997606
14:00+11ссз574947 1.2 9991748
17:00+13ссз562711 0.0 10001753
20:00+8ссз22465 0.0 100226
20 мая, чт
чт2023:00+3вюв115495 0.0 100410
02:00+3всв2254100 0.0 100337
05:00+3св3773100 0.3 1002262
08:00+4св4766100 0.3 1003441
11:00+10св4451100 0.0 10021006
14:00+14ссв334196 0.0 10011327
17:00+15ссв563943 0.0 9991333
20:00+12в7135354 0.0 998600
21 мая, пт
пт2123:00+8всв61469100 0.0 998631
02:00+7св478497 0.9 997284
05:00+5ссв369115 0.1 996170
08:00+7ссв6881100 0.1 998634
11:00+9ссв5672100 0.2 997797
14:00+10ссв796521 0.2 996654
17:00+11св9126426 0.0 992726
20:00+6ссв51382100 0.3 991559
22 мая, сб
сб2223:00+4ссв71391100 5.2 994523
02:00+4с3690100 5.8 994429
05:00+3с1290100 0.1 995359
08:00+3ссз1289100 0.2 995403
11:00+3зюз2593100 0.2 996553
14:00+6зсз456994 0.4 9941204
17:00+6зсз5778100 0.4 995961
20:00+4зсз5877100 1.1 996945